QTR23 KSEA-KSFO

Flight info

Callsign QTR23
Flight time N/A
Altitude 41000
Route HAROB6 ERAVE Q1 ETCHY MLBEC BDEGA4
Aircraft A359/H-SDE2E3GHIJ3J4J5LM1ORWXY/LB1D1

Departure

Time N/A
Airport Seattle–Tacoma International Airport (KSEA)

Arrival

Time 2026-04-30 18:14
Airport San Francisco International Airport (KSFO)
Time Latitude Longitude Altitude Speed Heading
2026-04-30 17:39 40.65458 -123.19172 43064 ft 498 kts 183°
2026-04-30 17:42 40.30852 -123.18314 43054 ft 498 kts 183°
2026-04-30 17:43 40.13527 -123.17888 43051 ft 498 kts 183°
2026-04-30 17:44 39.92796 -123.17369 43047 ft 498 kts 182°
2026-04-30 17:47 39.62259 -123.15897 43040 ft 499 kts 182°
2026-04-30 17:48 39.38013 -123.14788 43039 ft 499 kts 182°
2026-04-30 17:50 39.10294 -123.12929 43044 ft 506 kts 169°
2026-04-30 17:51 39.00802 -123.06808 41618 ft 517 kts 150°
2026-04-30 17:52 38.91603 -122.99269 39178 ft 527 kts 151°
2026-04-30 17:53 38.74542 -122.92044 35047 ft 521 kts 171°
2026-04-30 17:54 38.60357 -122.87884 31264 ft 527 kts 170°
2026-04-30 17:55 38.46166 -122.83700 27955 ft 514 kts 169°
2026-04-30 17:56 38.32469 -122.79682 25251 ft 497 kts 168°
2026-04-30 17:57 38.22487 -122.76765 23315 ft 484 kts 168°
2026-04-30 17:58 38.12813 -122.73956 21238 ft 471 kts 168°
2026-04-30 17:59 38.00270 -122.70315 18610 ft 453 kts 167°
2026-04-30 18:00 37.88472 -122.66005 15946 ft 432 kts 144°
2026-04-30 18:00 37.81767 -122.58781 14067 ft 415 kts 138°
2026-04-30 18:01 37.77425 -122.54100 12691 ft 405 kts 139°
2026-04-30 18:02 37.71071 -122.47483 11138 ft 380 kts 146°
2026-04-30 18:02 37.64246 -122.44223 10179 ft 314 kts 163°
2026-04-30 18:03 37.58381 -122.41996 8516 ft 285 kts 163°
2026-04-30 18:04 37.52790 -122.39924 7609 ft 274 kts 163°
2026-04-30 18:05 37.45583 -122.37304 6296 ft 266 kts 163°
2026-04-30 18:06 37.41891 -122.30706 4928 ft 248 kts 79°
2026-04-30 18:07 37.43416 -122.22575 3901 ft 235 kts 75°
2026-04-30 18:08 37.45007 -122.16857 3108 ft 225 kts 48°
2026-04-30 18:09 37.50444 -122.16249 3011 ft 209 kts 345°
2026-04-30 18:10 37.54937 -122.20356 2811 ft 209 kts 294°
2026-04-30 18:11 37.57433 -122.26361 1728 ft 170 kts 297°
2026-04-30 18:11 37.58910 -122.29883 1093 ft 137 kts 295°
2026-04-30 18:12 37.60197 -122.32960 564 ft 133 kts 296°
2026-04-30 18:13 37.61054 -122.35002 208 ft 130 kts 295°
2026-04-30 18:13 37.62062 -122.37413 28 ft 83 kts 298°
2026-04-30 18:14 37.62227 -122.38089 28 ft 20 kts 265°
2026-04-30 18:15 37.62005 -122.38121 28 ft 16 kts 118°
2026-04-30 18:15 37.61681 -122.37874 28 ft 23 kts 191°
2026-04-30 18:16 37.61403 -122.38046 28 ft 20 kts 207°
2026-04-30 18:16 37.61177 -122.38195 28 ft 18 kts 208°
2026-04-30 18:17 37.61064 -122.38269 28 ft 19 kts 207°
2026-04-30 18:17 37.60940 -122.38352 28 ft 21 kts 208°
2026-04-30 18:17 37.60889 -122.38569 27 ft 15 kts 291°
2026-04-30 18:18 37.60917 -122.38641 28 ft 14 kts 297°
2026-04-30 18:18 37.60965 -122.38757 28 ft 16 kts 297°
2026-04-30 18:18 37.61015 -122.38861 28 ft 11 kts 314°
2026-04-30 18:18 37.61091 -122.38867 28 ft 13 kts 23°
2026-04-30 18:19 37.61139 -122.38894 28 ft 4 kts 302°
2026-04-30 18:19 37.61148 -122.38914 28 ft 3 kts 298°
2026-04-30 18:19 37.61156 -122.38935 28 ft 2 kts 297°
2026-04-30 18:19 37.61159 -122.38941 28 ft 1 kts 297°
2026-04-30 18:20 37.61161 -122.38947 28 ft 0 kts 297°